Location: Newark
(3.3223°N, 76.2348°W)
Time: 17:14:26
(UTC+00:00)

Envisat - Visible Passes

Search period start: 14 November 2019 00:00
Search period end: 24 November 2019 00:00
Orbit: 764 x 766 km, 98.1° (Epoch: 14 November)

Date Brightness Start Highest point End Pass type
(mag) Time Alt. Az. Time Alt. Az. Time Alt. Az.
14 Nov 4.9 00:09:19 10° SSW 00:13:47 31° WSW 00:18:14 10° NW visible
14 Nov 3.0 23:32:01 10° SSE 23:37:07 90° NE 23:42:11 10° NNW visible
15 Nov 6.7 10:26:38 10° E 10:27:32 10° ESE 10:28:27 10° ESE visible
16 Nov 6.0 00:36:22 10° SW 00:39:12 15° WSW 00:42:03 10° WNW visible
16 Nov 4.3 23:57:45 10° S 00:02:32 42° WSW 00:07:19 10° NNW visible
17 Nov 3.0 23:20:50 10° SSE 23:25:52 66° ENE 23:30:53 10° N visible
19 Nov 5.6 00:24:15 10° SSW 00:27:58 21° WSW 00:31:41 10° NW visible
19 Nov 3.6 23:46:19 10° S 23:51:18 59° WSW 23:56:16 10° NNW visible
20 Nov 3.2 23:09:46 10° SSE 23:14:37 48° ENE 23:19:29 10° N visible
22 Nov 5.1 00:12:26 10° SSW 00:16:43 28° WSW 00:21:00 10° NW visible
22 Nov 3.1 23:34:58 10° S 23:40:03 81° WSW 23:45:07 10° NNW visible
23 Nov 6.5 10:28:34 10° E 10:30:29 12° ESE 10:32:23 10° SE visible
